• In Hungary
  • List of Countries
  • For 7 days
  • Water Temperature
  • Satellite Maps
  • Weather Map
  • News
  • Weather Widgets
  • user-avatar
    Login

    Hourly Weather Tournai

    Today, 19 September, Wednesday

    Time Temperature Precipitation Wind Pressure Humidity
    00:00 +17°C° 0 mm 2 mps 758 mmHg 86%
    01:00 +17°C° 0 mm 3 mps 758 mmHg 87%
    02:00 +17°C° 0 mm 3 mps 758 mmHg 87%
    03:00 +16°C° 0 mm 3 mps 758 mmHg 88%
    04:00 +16°C° 0 mm 3 mps 758 mmHg 90%
    05:00 +16°C° 0 mm 3 mps 758 mmHg 91%
    06:00 +16°C° 0 mm 3 mps 758 mmHg 93%
    07:00 +17°C° 0 mm 4 mps 758 mmHg 85%
    08:00 +19°C° 0 mm 5 mps 759 mmHg 77%
    09:00 +20°C° 0 mm 6 mps 759 mmHg 70%
    10:00 +22°C° 0 mm 6 mps 759 mmHg 65%
    11:00 +23°C° 0 mm 6 mps 759 mmHg 61%
    12:00 +24°C° 0 mm 6 mps 759 mmHg 57%
    13:00 +24°C° 0 mm 6 mps 759 mmHg 57%
    14:00 +24°C° 0 mm 6 mps 759 mmHg 57%
    15:00 +24°C° 0 mm 6 mps 758 mmHg 57%
    16:00 +23°C° 0 mm 5 mps 758 mmHg 61%
    17:00 +22°C° 0 mm 4 mps 759 mmHg 66%
    18:00 +20°C° 0 mm 3 mps 759 mmHg 70%
    19:00 +20°C° 0 mm 3 mps 759 mmHg 74%
    20:00 +19°C° 0 mm 3 mps 759 mmHg 77%
    21:00 +18°C° 0 mm 3 mps 760 mmHg 80%
    22:00 +18°C° 0 mm 3 mps 760 mmHg 83%
    23:00 +17°C° 0 mm 3 mps 760 mmHg 85%

    Tomorrow, 20 September, Thursday

    Time Temperature Precipitation Wind Pressure Humidity
    00:00 +17°C° 0 mm 3 mps 760 mmHg 88%
    01:00 +17°C° 0 mm 3 mps 760 mmHg 89%
    02:00 +16°C° 0 mm 3 mps 760 mmHg 91%
    03:00 +16°C° 0 mm 3 mps 759 mmHg 93%
    04:00 +16°C° 0 mm 3 mps 759 mmHg 93%
    05:00 +15°C° 0 mm 4 mps 759 mmHg 93%
    06:00 +15°C° 0 mm 4 mps 759 mmHg 93%
    07:00 +16°C° 0 mm 5 mps 759 mmHg 86%
    08:00 +19°C° 0 mm 5 mps 759 mmHg 79%
    09:00 +21°C° 0 mm 6 mps 759 mmHg 72%
    10:00 +22°C° 0 mm 6 mps 759 mmHg 68%
    11:00 +23°C° 0 mm 6 mps 759 mmHg 63%
    12:00 +24°C° 0 mm 6 mps 758 mmHg 59%
    13:00 +24°C° 0 mm 6 mps 758 mmHg 58%
    14:00 +24°C° 0 mm 6 mps 757 mmHg 57%
    15:00 +26°C° 0 mm 6 mps 757 mmHg 56%
    16:00 +25°C° 0 mm 5 mps 756 mmHg 60%
    17:00 +22°C° 0 mm 4 mps 755 mmHg 64%
    18:00 +21°C° 0 mm 3 mps 755 mmHg 68%
    19:00 +21°C° 0 mm 4 mps 754 mmHg 64%
    20:00 +21°C° 0 mm 5 mps 754 mmHg 61%
    21:00 +21°C° 0 mm 6 mps 754 mmHg 58%
    22:00 +21°C° 0 mm 6 mps 753 mmHg 59%
    23:00 +21°C° 0 mm 6 mps 752 mmHg 60%

    Day after tomorrow, 21 September, Friday

    Time Temperature Precipitation Wind Pressure Humidity
    00:00 +20°C° 0 mm 6 mps 752 mmHg 61%
    01:00 +20°C° 0 mm 7 mps 751 mmHg 63%
    02:00 +20°C° 0 mm 8 mps 750 mmHg 65%
    03:00 +19°C° 0 mm 9 mps 750 mmHg 67%
    04:00 +18°C° 0.9 mm 9 mps 750 mmHg 71%
    05:00 +17°C° 0.9 mm 9 mps 750 mmHg 75%
    06:00 +17°C° 0.9 mm 8 mps 751 mmHg 79%
    07:00 +16°C° 0.2 mm 8 mps 752 mmHg 74%
    08:00 +15°C° 0.2 mm 7 mps 753 mmHg 69%
    09:00 +14°C° 0.2 mm 7 mps 754 mmHg 64%
    10:00 +15°C° 0 mm 7 mps 755 mmHg 59%
    11:00 +16°C° 0 mm 7 mps 755 mmHg 53%
    12:00 +17°C° 0 mm 8 mps 756 mmHg 48%
    13:00 +17°C° 0 mm 8 mps 756 mmHg 47%
    14:00 +17°C° 0 mm 8 mps 757 mmHg 47%
    15:00 +17°C° 0 mm 9 mps 757 mmHg 46%
    16:00 +16°C° 0 mm 8 mps 757 mmHg 50%
    17:00 +15°C° 0 mm 6 mps 758 mmHg 54%
    18:00 +14°C° 0 mm 5 mps 758 mmHg 57%
    19:00 +13°C° 0 mm 5 mps 759 mmHg 59%
    20:00 +13°C° 0 mm 5 mps 760 mmHg 62%
    21:00 +12°C° 0 mm 5 mps 760 mmHg 64%
    22:00 +12°C° 0 mm 4 mps 761 mmHg 66%
    23:00 +11°C° 0 mm 4 mps 761 mmHg 68%

    22 September, Saturday

    Time Temperature Precipitation Wind Pressure Humidity
    00:00 +11°C° 0 mm 4 mps 761 mmHg 71%
    01:00 +11°C° 0 mm 4 mps 762 mmHg 73%
    02:00 +10°C° 0 mm 3 mps 762 mmHg 76%
    03:00 +10°C° 0 mm 3 mps 762 mmHg 78%
    04:00 +10°C° 0 mm 3 mps 762 mmHg 80%
    05:00 +9°C° 0 mm 3 mps 763 mmHg 81%
    06:00 +9°C° 0 mm 3 mps 763 mmHg 82%
    07:00 +11°C° 0 mm 4 mps 763 mmHg 75%
    08:00 +13°C° 0 mm 4 mps 764 mmHg 67%
    09:00 +15°C° 0 mm 5 mps 764 mmHg 59%
    10:00 +16°C° 0.1 mm 5 mps 764 mmHg 56%
    11:00 +16°C° 0.1 mm 5 mps 764 mmHg 53%
    12:00 +17°C° 0.1 mm 5 mps 764 mmHg 50%
    13:00 +17°C° 0 mm 5 mps 764 mmHg 49%
    14:00 +18°C° 0 mm 4 mps 764 mmHg 48%
    15:00 +18°C° 0 mm 4 mps 764 mmHg 48%
    16:00 +16°C° 0 mm 3 mps 764 mmHg 53%
    17:00 +15°C° 0 mm 2 mps 764 mmHg 58%
    18:00 +13°C° 0 mm 2 mps 764 mmHg 63%
    19:00 +13°C° 0 mm 1 mps 764 mmHg 64%
    20:00 +13°C° 0 mm 1 mps 764 mmHg 66%
    21:00 +12°C° 0 mm 1 mps 764 mmHg 68%
    22:00 +12°C° 0.2 mm 1 mps 763 mmHg 69%
    23:00 +12°C° 0.2 mm 2 mps 763 mmHg 69%

    23 September, Sunday

    Time Temperature Precipitation Wind Pressure Humidity
    00:00 +13°C° 0.2 mm 2 mps 762 mmHg 70%
    01:00 +11°C° 0.6 mm 3 mps 761 mmHg 73%
    02:00 +11°C° 0.6 mm 4 mps 760 mmHg 76%
    03:00 +11°C° 0.6 mm 4 mps 760 mmHg 80%
    04:00 +12°C° 0.3 mm 5 mps 758 mmHg 76%
    05:00 +11°C° 0.3 mm 6 mps 757 mmHg 73%
    06:00 +11°C° 0.3 mm 7 mps 756 mmHg 70%
    07:00 +12°C° 0.1 mm 8 mps 754 mmHg 67%
    08:00 +13°C° 0.1 mm 9 mps 753 mmHg 65%
    09:00 +14°C° 0.1 mm 10 mps 751 mmHg 62%
    10:00 +17°C° 0.3 mm 10 mps 750 mmHg 64%
    11:00 +19°C° 0.3 mm 11 mps 748 mmHg 66%
    12:00 +21°C° 0.3 mm 11 mps 747 mmHg 68%
    13:00 +21°C° 0.5 mm 12 mps 745 mmHg 67%
    14:00 +20°C° 0.5 mm 13 mps 744 mmHg 66%
    15:00 +20°C° 0.5 mm 14 mps 742 mmHg 65%
    16:00 +18°C° 0.1 mm 15 mps 742 mmHg 64%
    17:00 +15°C° 0.1 mm 15 mps 742 mmHg 63%
    18:00 +13°C° 0.1 mm 16 mps 741 mmHg 63%
    19:00 +13°C° 0.2 mm 16 mps 742 mmHg 65%
    20:00 +13°C° 0.2 mm 15 mps 743 mmHg 67%
    21:00 +11°C° 0.2 mm 15 mps 743 mmHg 69%
    22:00 +11°C° 0.5 mm 15 mps 746 mmHg 70%
    23:00 +11°C° 0.5 mm 15 mps 749 mmHg 71%

    24 September, Monday

    Time Temperature Precipitation Wind Pressure Humidity
    00:00 +11°C° 0.5 mm 15 mps 751 mmHg 71%
    01:00 +12°C° 0.2 mm 13 mps 754 mmHg 70%
    02:00 +12°C° 0.2 mm 11 mps 757 mmHg 69%
    03:00 +11°C° 0.2 mm 10 mps 760 mmHg 68%
    04:00 +11°C° 0.1 mm 9 mps 761 mmHg 68%
    05:00 +11°C° 0.1 mm 8 mps 763 mmHg 68%
    06:00 +10°C° 0.1 mm 7 mps 764 mmHg 68%
    07:00 +11°C° 0.1 mm 7 mps 766 mmHg 65%
    08:00 +11°C° 0.1 mm 7 mps 767 mmHg 63%
    09:00 +12°C° 0.1 mm 8 mps 768 mmHg 60%
    10:00 +12°C° 0.1 mm 8 mps 769 mmHg 60%
    11:00 +12°C° 0.1 mm 7 mps 769 mmHg 60%
    12:00 +14°C° 0.1 mm 7 mps 770 mmHg 60%
    13:00 +14°C° 0.1 mm 7 mps 770 mmHg 59%
    14:00 +14°C° 0.1 mm 7 mps 771 mmHg 58%
    15:00 +14°C° 0.1 mm 6 mps 771 mmHg 57%
    16:00 +13°C° 0 mm 5 mps 771 mmHg 60%
    17:00 +12°C° 0 mm 4 mps 772 mmHg 63%
    18:00 +11°C° 0 mm 3 mps 772 mmHg 66%
    19:00 +11°C° 0 mm 3 mps 772 mmHg 68%
    20:00 +10°C° 0 mm 2 mps 773 mmHg 69%
    21:00 +10°C° 0 mm 2 mps 773 mmHg 71%
    22:00 +9°C° 0 mm 2 mps 774 mmHg 72%
    23:00 +9°C° 0 mm 2 mps 774 mmHg 74%
    Show more